Fort Leonard Wood, MO

6:59 AM CST on January 22, 2018 (GMT -0600)
Waynesville Regional At Forney Field

Weather History for KTBN - September, 2012

Change the Weather History Date:

Friday, September 14, 2012

  Actual Average Record
Temperature  
Mean Temperature 56 °F -  
Max Temperature 59 °F 77 °F 89 °F (2000)
Min Temperature 53 °F 59 °F 42 °F (2014)
Degree Days  
Heating Degree Days 9    
Growing Degree Days 6 (Base 50)    
Moisture  
Dew Point 57 °F    
Average Humidity 98    
Maximum Humidity 100    
Minimum Humidity 88    
Precipitation  
Precipitation 0.07 in - - ()
Sea Level Pressure  
Sea Level Pressure 30.29 in    
Wind  
Wind Speed 7 mph (NE)    
Max Wind Speed 12 mph    
Max Gust Speed -    
Visibility 9 miles    
Events Rain    
Averages and records for this station are not official NWS values.
T = Trace of Precipitation, MM = Missing Value Source: NWS Daily Summary

Daily Weather History Graph

Daily Weather History Graph

Search for Another Location

Airport or City:

Trip Planner

Search our weather history database for the weather conditions in past years. The results will help you decide how hot, cold, wet, or windy it might be!

Date:

Astronomy

Sep. 14, 2012 Rise Set
Actual Time 6:50 AM CDT 7:17 PM CDT
Civil Twilight 6:23 AM CDT 7:43 PM CDT
Nautical Twilight 5:52 AM CDT 8:14 PM CDT
Astronomical Twilight 5:21 AM CDT 8:45 PM CDT
Moon 5:15 AM CDT (9/14) 6:13 PM CDT (9/14)
Length of Visible Light 13h 19m
Length of Day
12h 27m
Waning Crescent, 2% of the Moon is Illuminated
Sep 14
Waning Crescent
Sep 15
New
Sep 22
First Quarter
Sep 29
Full
Oct 8
Last Quarter

Hourly Weather History & Observations

Time (CDT) Temp. Dew Point Humidity Pressure Visibility Wind Dir Wind Speed Gust Speed Precip Events Conditions
12:55 AM 57.6 °F 55.6 °F 93% 30.25 in 10.0 mi NNE 8.1 mph - N/A   Partly Cloudy
1:45 AM 57.2 °F 55.4 °F 94% 30.25 in 10.0 mi North 5.8 mph - N/A   Mostly Cloudy
1:55 AM 57.6 °F 55.2 °F 92% 30.25 in 10.0 mi North 8.1 mph - N/A   Overcast
2:55 AM 57.0 °F 54.1 °F 90% 30.25 in 10.0 mi North 8.1 mph - N/A   Overcast
3:55 AM 56.8 °F 54.3 °F 91% 30.23 in 10.0 mi North 9.2 mph - N/A   Overcast
4:10 AM 57.2 °F 53.6 °F 88% 30.24 in 10.0 mi NNE 9.2 mph - N/A   Overcast
4:55 AM 55.2 °F 53.4 °F 94% 30.25 in 10.0 mi North 8.1 mph - N/A   Overcast
5:55 AM 54.5 °F 52.5 °F 93% 30.26 in 10.0 mi NNE 11.5 mph - N/A   Overcast
6:03 AM 55.4 °F 51.8 °F 88% 30.26 in 10.0 mi NNE 10.4 mph - N/A   Overcast
6:06 AM 55.4 °F 51.8 °F 88% 30.27 in 10.0 mi NNE 8.1 mph - N/A   Light Drizzle
6:25 AM 53.6 °F 53.6 °F 100% 30.28 in 10.0 mi NNE 6.9 mph - N/A Rain Light Rain
6:30 AM 53.6 °F 53.6 °F 100% 30.28 in 10.0 mi North 9.2 mph - N/A Rain Light Rain
6:55 AM 53.6 °F 53.2 °F 99% 30.28 in 10.0 mi North 5.8 mph - 0.00 in Rain Light Rain
7:24 AM 53.6 °F 53.6 °F 100% 30.30 in 10.0 mi NNE 8.1 mph - N/A Rain Light Rain
7:34 AM 53.6 °F 53.6 °F 100% 30.30 in 10.0 mi NNE 6.9 mph - N/A   Light Drizzle
7:51 AM 53.6 °F 53.6 °F 100% 30.30 in 10.0 mi NNE 6.9 mph - N/A   Light Drizzle
7:55 AM 53.8 °F 53.8 °F 100% 30.30 in 10.0 mi NE 5.8 mph - 0.00 in   Light Drizzle
8:38 AM 53.6 °F 53.6 °F 100% 30.30 in 10.0 mi NNE 4.6 mph - N/A Rain Light Rain
8:55 AM 54.7 °F 54.7 °F 100% 30.30 in 10.0 mi NNE 8.1 mph - 0.00 in   Light Drizzle
9:55 AM 55.4 °F 55.4 °F 100% 30.32 in 10.0 mi NNE 6.9 mph - 0.00 in   Overcast
10:29 AM 55.4 °F 55.4 °F 100% 30.32 in 10.0 mi NNE 6.9 mph - N/A   Light Drizzle
10:55 AM 56.7 °F 56.7 °F 100% 30.33 in 10.0 mi NNE 8.1 mph - 0.00 in Rain Light Rain
11:11 AM 57.2 °F 57.2 °F 100% 30.32 in 10.0 mi NNE 9.2 mph - N/A Rain Light Rain
11:55 AM 57.6 °F 57.6 °F 100% 30.32 in 10.0 mi NNE 4.6 mph - 0.00 in Rain Light Rain
12:14 PM 57.2 °F 57.2 °F 100% 30.33 in 10.0 mi NE 6.9 mph - N/A Rain Light Rain
12:52 PM 59.0 °F 59.0 °F 100% 30.32 in 10.0 mi NNE 4.6 mph - N/A Rain Light Rain
12:55 PM 58.1 °F 58.1 °F 100% 30.32 in 10.0 mi NNE 4.6 mph - 0.07 in Rain Light Rain
1:15 PM 59.0 °F 59.0 °F 100% 30.32 in 10.0 mi NE 8.1 mph - N/A Rain Light Rain
1:55 PM 58.8 °F 58.8 °F 100% 30.31 in 10.0 mi NE 6.9 mph - 0.00 in Rain Light Rain
2:13 PM 59.0 °F 59.0 °F 100% 30.30 in 10.0 mi NE 6.9 mph - N/A   Light Drizzle
2:28 PM 59.0 °F 59.0 °F 100% 30.30 in 10.0 mi Variable 5.8 mph - N/A   Overcast
2:36 PM 59.0 °F 59.0 °F 100% 30.31 in 10.0 mi NE 9.2 mph - N/A   Light Drizzle
2:55 PM 58.5 °F 58.5 °F 100% 30.30 in 7.0 mi NNE 6.9 mph - 0.00 in Rain Light Rain
3:55 PM 58.8 °F 58.8 °F 100% 30.29 in 5.0 mi NE 8.1 mph - 0.00 in Rain Light Rain
4:26 PM 59.0 °F 59.0 °F 100% 30.29 in 4.0 mi NE 6.9 mph - N/A   Overcast
4:55 PM 59.4 °F 59.4 °F 100% 30.29 in 6.0 mi ENE 9.2 mph - 0.00 in   Overcast
5:11 PM 59.0 °F 59.0 °F 100% 30.29 in 7.0 mi NE 10.4 mph - N/A   Overcast
5:55 PM 59.0 °F 59.0 °F 100% 30.29 in 5.0 mi NE 8.1 mph - N/A   Overcast
6:05 PM 59.0 °F 59.0 °F 100% 30.29 in 4.0 mi NE 9.2 mph - N/A   Overcast
6:17 PM 59.0 °F 59.0 °F 100% 30.28 in 3.0 mi NE 9.2 mph - N/A   Overcast
6:32 PM 59.0 °F 59.0 °F 100% 30.29 in 4.0 mi NE 5.8 mph - N/A   Overcast
6:55 PM 58.6 °F 58.6 °F 100% 30.29 in 5.0 mi ENE 9.2 mph - N/A   Overcast
7:55 PM 58.6 °F 58.6 °F 100% 30.29 in 6.0 mi NE 5.8 mph - N/A   Overcast
8:29 PM 59.0 °F 59.0 °F 100% 30.29 in 8.0 mi ENE 6.9 mph - N/A   Overcast
8:55 PM 58.8 °F 58.8 °F 100% 30.28 in 10.0 mi East 9.2 mph - N/A   Overcast
9:24 PM 59.0 °F 59.0 °F 100% 30.29 in 10.0 mi ENE 8.1 mph - N/A   Overcast
9:55 PM 59.0 °F 59.0 °F 100% 30.30 in 10.0 mi ENE 5.8 mph - N/A   Overcast
10:15 PM 59.0 °F 59.0 °F 100% 30.30 in 10.0 mi ENE 3.5 mph - N/A   Overcast
10:17 PM 59.0 °F 59.0 °F 100% 30.30 in 10.0 mi Calm Calm - N/A   Overcast
10:23 PM 59.0 °F 59.0 °F 100% 30.30 in 10.0 mi ENE 5.8 mph - N/A   Overcast
10:38 PM 59.0 °F 59.0 °F 100% 30.30 in 10.0 mi East 3.5 mph - N/A   Overcast
10:55 PM 58.8 °F 58.8 °F 100% 30.30 in 10.0 mi East 3.5 mph - N/A   Overcast
11:55 PM 58.8 °F 58.8 °F 100% 30.28 in 10.0 mi ENE 3.5 mph - N/A   Overcast